User: anonymous   Login
Location: Unspecified
(0.0000°N, 0.0000°E)
Time: 10:50:44
(UTC+00:00)
Language:

OPTUS D2 - Orbit

View from above orbital plane
View from above orbital plane
View from above satellite
View from above satellite

Ground track
Ground track

The orbit data is extracted from the following two-line orbital elements,

1 32252U 07044A   17206.28292052 -.00000209 +00000-0 +00000-0 0  9997
2 32252 000.0082 027.4061 0003464 093.2211 076.3930 01.00271184036002
Epoch (UTC): 25 July 2017 06:47:24
Eccentricity: 0.0003464
inclination: 0.0082°
perigee height: 35772 km
apogee height: 35801 km
right ascension of ascending node: 27.4061°
argument of perigee: 93.2211°
revolutions per day: 1.00271184
mean anomaly at epoch: 76.3930°
orbit number at epoch: 3600

The dashed part of the orbit path shows where the satellite is in the earth's shadow,  

DLR